This is the latest recevied weather packets stored in our database for station/object N9OJR. If no packets are shown the sender has not sent any weather packets the latest 10 day(s).
| Time | Temp. | Humidity | Pressure | Rain* | Wind** | Luminosity | Snow |
|---|---|---|---|---|---|---|---|
| 1777972896 | 16.67° C | 75% | 1002 hPa | 0 mm | - | 0 W/m² | - |
| 1777972592 | 16.67° C | 75% | 1002 hPa | 0 mm | - | 0 W/m² | - |
| 1777972290 | 16.67° C | 74% | 1002 hPa | 0 mm | - | 0 W/m² | - |
| 1777971987 | 17.22° C | 74% | 1001.8 hPa | 0 mm | - | 0 W/m² | - |
| 1777971686 | 17.22° C | 73% | 1002 hPa | 0 mm | - | 0 W/m² | - |
| 1777971382 | 17.22° C | 74% | 1001.6 hPa | 0 mm | - | 0 W/m² | - |
| 1777971081 | 17.22° C | 73% | 1001.6 hPa | 0 mm | - | 0 W/m² | - |
| 1777970778 | 17.22° C | 73% | 1001.6 hPa | 0 mm | - | 0 W/m² | - |
| 1777970476 | 17.78° C | 73% | 1001.5 hPa | 0 mm | - | 0 W/m² | - |
| 1777970174 | 17.78° C | 71% | 1001.5 hPa | 0 mm | - | 0 W/m² | - |
| 1777969870 | 17.78° C | 71% | 1001.1 hPa | 0 mm | - | 0 W/m² | - |
| 1777969566 | 17.78° C | 70% | 1001 hPa | 0 mm | - | 0 W/m² | - |
| 1777969263 | 17.78° C | 71% | 1001.4 hPa | 0 mm | - | 0 W/m² | - |
| 1777968959 | 17.22° C | 72% | 1001.5 hPa | 0 mm | - | 0 W/m² | - |
| 1777968656 | 17.78° C | 73% | 1001.6 hPa | 0 mm | - | 0 W/m² | - |
| 1777968352 | 17.78° C | 69% | 1001.2 hPa | 0 mm | - | 0 W/m² | - |
| 1777968049 | 17.78° C | 70% | 1001.4 hPa | 0 mm | - | 0 W/m² | - |
| 1777967745 | 17.78° C | 71% | 1001.1 hPa | 0 mm | - | 0 W/m² | - |
| 1777967442 | 17.78° C | 72% | 1000.9 hPa | 0 mm | - | 0 W/m² | - |
| 1777967139 | 17.22° C | 72% | 1000.9 hPa | 0 mm | - | 0 W/m² | - |
| 1777966836 | 17.22° C | 74% | 1001.1 hPa | 0 mm | - | 0 W/m² | - |
| 1777966533 | 17.78° C | 73% | 1000.8 hPa | 0 mm | - | 0 W/m² | - |
| 1777966232 | 18.33° C | 68% | 1000.9 hPa | 0 mm | - | 0 W/m² | - |
| 1777965927 | 17.78° C | 69% | 1001.1 hPa | 0 mm | - | 0 W/m² | - |
| 1777965624 | 17.78° C | 69% | 1001 hPa | 0 mm | - | 0 W/m² | - |
* Rain latest hour (hover to see other rain measurements)
** Current wind speed in m/s (hover to see current wind gust speed)